QPF
0.00 0.00 0.00 0.01 0.00 0.00 0.00 0.00 0.01 0.01 0.02 0.03 0.05 0.09 0.09 0.08 0.07 0.05 0.06 0.07 0.07 0.08 0.06 0.05 0.04 0.04 0.05 0.05 0.04 0.03 0.02 0.01 0.01 0.01 0.01 0.01 0.01 0.01 0.01 0.01 0.01 0.01 0.01 0.01
0.00 0.00 0.00 0.00 0.00 0.00 0.00 0.00 0.01 0.01 0.04 0.05 0.05 0.06 0.07 0.08 0.09 0.06 0.04 0.05 0.06 0.07 0.08 0.09 0.07 0.06 0.05 0.05 0.05 0.04 0.03 0.02 0.01 0.01 0.01 0.02 0.02 0.02 0.02 0.02 0.01 0.01 0.01 0.01
0.00 0.01 0.00 0.00 0.00 0.00 0.00 0.01 0.01 0.02 0.03 0.04 0.04 0.04 0.04 0.05 0.08 0.08 0.07 0.05 0.06 0.09 0.11 0.15 0.12 0.07 0.05 0.05 0.06 0.07 0.05 0.03 0.03 0.03 0.03 0.03 0.03 0.03 0.01 0.01 0.01 0.01 0.01 0.01
0.00 0.01 0.01 0.01 0.01 0.01 0.01 0.02 0.04 0.05 0.04 0.03 0.03 0.04 0.04 0.05 0.06 0.06 0.06 0.06 0.07 0.10 0.12 0.13 0.10 0.06 0.05 0.05 0.07 0.10 0.08 0.05 0.04 0.04 0.04 0.05 0.05 0.04 0.03 0.02 0.02 0.02 0.02 0.02
0.00 0.01 0.02 0.02 0.01 0.02 0.02 0.03 0.05 0.04 0.04 0.04 0.03 0.04 0.06 0.06 0.05 0.04 0.04 0.05 0.10 0.16 0.15 0.12 0.09 0.07 0.06 0.06 0.10 0.12 0.09 0.07 0.06 0.05 0.05 0.06 0.07 0.06 0.05 0.05 0.05 0.04 0.03 0.03
0.01 0.01 0.02 0.02 0.01 0.02 0.03 0.09 0.07 0.05 0.05 0.07 0.09 0.08 0.11 0.08 0.05 0.07 0.10 0.10 0.10 0.12 0.14 0.16 0.11 0.09 0.10 0.10 0.14 0.13 0.10 0.07 0.06 0.05 0.05 0.05 0.06 0.08 0.09 0.08 0.07 0.06 0.06 0.06
0.01 0.01 0.02 0.02 0.02 0.02 0.03 0.05 0.07 0.08 0.08 0.10 0.15 0.11 0.06 0.07 0.06 0.06 0.08 0.07 0.07 0.08 0.11 0.18 0.17 0.14 0.13 0.15 0.16 0.12 0.08 0.06 0.06 0.06 0.06 0.07 0.07 0.08 0.10 0.10 0.10 0.09 0.09 0.08
0.01 0.02 0.03 0.03 0.03 0.04 0.05 0.05 0.06 0.08 0.07 0.10 0.09 0.07 0.05 0.05 0.05 0.03 0.03 0.04 0.05 0.05 0.05 0.09 0.12 0.14 0.13 0.10 0.10 0.10 0.07 0.08 0.08 0.07 0.07 0.08 0.09 0.09 0.09 0.10 0.11 0.12 0.12 0.09
0.05 0.05 0.06 0.06 0.05 0.05 0.05 0.07 0.08 0.06 0.05 0.07 0.06 0.05 0.04 0.04 0.04 0.04 0.03 0.03 0.03 0.03 0.02 0.03 0.04 0.05 0.04 0.04 0.04 0.03 0.04 0.05 0.04 0.04 0.04 0.05 0.05 0.06 0.08 0.08 0.07 0.06 0.06 0.06
0.06 0.09 0.08 0.07 0.07 0.08 0.06 0.06 0.07 0.05 0.05 0.05 0.05 0.03 0.04 0.05 0.05 0.06 0.05 0.04 0.03 0.02 0.01 0.01 0.02 0.03 0.03 0.03 0.03 0.03 0.04 0.03 0.02 0.02 0.02 0.02 0.02 0.02 0.03 0.03 0.04 0.05 0.06 0.05
0.04 0.06 0.06 0.07 0.08 0.08 0.05 0.03 0.03 0.03 0.03 0.03 0.04 0.05 0.06 0.06 0.05 0.06 0.07 0.04 0.03 0.02 0.02 0.01 0.02 0.02 0.03 0.03 0.03 0.03 0.04 0.04 0.04 0.03 0.04 0.03 0.03 0.03 0.03 0.03 0.04 0.06 0.06 0.07
0.03 0.04 0.06 0.07 0.07 0.07 0.06 0.04 0.03 0.03 0.04 0.05 0.07 0.09 0.09 0.08 0.07 0.06 0.05 0.05 0.04 0.03 0.02 0.02 0.02 0.03 0.02 0.03 0.03 0.03 0.04 0.05 0.05 0.04 0.04 0.04 0.03 0.03 0.04 0.04 0.05 0.06 0.06 0.06
0.02 0.03 0.05 0.07 0.10 0.11 0.08 0.06 0.04 0.04 0.08 0.13 0.16 0.14 0.11 0.09 0.07 0.05 0.05 0.05 0.05 0.05 0.04 0.04 0.04 0.04 0.02 0.02 0.02 0.02 0.03 0.05 0.04 0.04 0.03 0.03 0.02 0.02 0.03 0.05 0.07 0.06 0.05 0.05
0.01 0.03 0.04 0.04 0.06 0.06 0.06 0.05 0.09 0.15 0.15 0.15 0.17 0.14 0.10 0.07 0.05 0.05 0.05 0.05 0.06 0.07 0.07 0.07 0.04 0.02 0.02 0.02 0.02 0.02 0.02 0.03 0.03 0.03 0.03 0.03 0.03 0.03 0.03 0.04 0.06 0.07 0.06 0.05
0.02 0.03 0.06 0.05 0.06 0.08 0.06 0.03 0.04 0.10 0.11 0.10 0.08 0.07 0.06 0.05 0.04 0.05 0.05 0.04 0.03 0.03 0.06 0.08 0.05 0.02 0.02 0.02 0.02 0.03 0.03 0.03 0.03 0.04 0.03 0.03 0.03 0.03 0.03 0.03 0.04 0.05 0.05 0.06
0.03 0.04 0.08 0.09 0.08 0.07 0.04 0.02 0.01 0.03 0.06 0.07 0.06 0.05 0.04 0.03 0.04 0.03 0.04 0.03 0.03 0.02 0.03 0.06 0.02 0.02 0.02 0.02 0.02 0.03 0.03 0.03 0.03 0.03 0.02 0.03 0.03 0.02 0.02 0.02 0.03 0.05 0.05 0.06
0.03 0.04 0.06 0.08 0.06 0.03 0.01 0.02 0.02 0.02 0.04 0.06 0.08 0.06 0.05 0.04 0.04 0.03 0.03 0.04 0.03 0.02 0.02 0.02 0.02 0.02 0.02 0.02 0.03 0.03 0.04 0.04 0.04 0.03 0.03 0.03 0.03 0.02 0.02 0.02 0.02 0.03 0.04 0.05
0.03 0.02 0.03 0.04 0.04 0.02 0.01 0.01 0.02 0.04 0.06 0.08 0.08 0.08 0.07 0.06 0.05 0.04 0.04 0.04 0.03 0.02 0.02 0.02 0.03 0.04 0.04 0.03 0.03 0.03 0.04 0.04 0.04 0.03 0.03 0.03 0.03 0.03 0.02 0.02 0.02 0.02 0.02 0.02
0.01 0.01 0.02 0.03 0.02 0.01 0.01 0.01 0.02 0.04 0.08 0.11 0.10 0.09 0.07 0.05 0.04 0.04 0.04 0.04 0.03 0.03 0.04 0.04 0.05 0.04 0.04 0.03 0.03 0.03 0.03 0.03 0.04 0.04 0.03 0.03 0.02 0.02 0.02 0.03 0.03 0.02 0.02 0.02
0.01 0.01 0.02 0.02 0.01 0.01 0.01 0.02 0.02 0.03 0.05 0.09 0.09 0.08 0.05 0.03 0.03 0.03 0.02 0.03 0.05 0.06 0.05 0.04 0.03 0.02 0.02 0.02 0.03 0.02 0.02 0.03 0.03 0.04 0.04 0.03 0.03 0.04 0.04 0.03 0.02 0.02 0.01 0.01
0.01 0.02 0.02 0.02 0.01 0.01 0.02 0.02 0.03 0.03 0.04 0.04 0.08 0.09 0.06 0.03 0.03 0.03 0.02 0.04 0.05 0.05 0.06 0.05 0.03 0.02 0.01 0.01 0.02 0.02 0.02 0.03 0.03 0.03 0.03 0.03 0.03 0.03 0.03 0.03 0.02 0.02 0.01 0.02
0.01 0.02 0.02 0.01 0.01 0.02 0.02 0.03 0.03 0.03 0.04 0.04 0.05 0.07 0.06 0.05 0.04 0.03 0.04 0.05 0.06 0.05 0.05 0.04 0.03 0.01 0.01 0.01 0.01 0.02 0.02 0.03 0.03 0.03 0.02 0.02 0.02 0.02 0.02 0.02 0.02 0.02 0.01 0.01
0.02 0.04 0.03 0.01 0.01 0.02 0.03 0.04 0.03 0.02 0.03 0.04 0.06 0.05 0.05 0.05 0.05 0.04 0.05 0.05 0.05 0.05 0.05 0.04 0.02 0.01 0.01 0.01 0.01 0.01 0.01 0.02 0.04 0.04 0.04 0.03 0.03 0.04 0.04 0.03 0.03 0.03 0.03 0.03
0.05 0.05 0.03 0.03 0.03 0.03 0.03 0.02 0.02 0.02 0.03 0.06 0.08 0.07 0.06 0.05 0.04 0.04 0.05 0.04 0.04 0.04 0.03 0.03 0.02 0.01 0.01 0.00 0.01 0.01 0.01 0.02 0.03 0.04 0.04 0.04 0.05 0.04 0.04 0.04 0.04 0.04 0.03 0.03
0.05 0.04 0.04 0.04 0.05 0.04 0.03 0.02 0.03 0.04 0.04 0.04 0.06 0.09 0.07 0.05 0.05 0.06 0.05 0.04 0.04 0.04 0.04 0.03 0.03 0.02 0.01 0.01 0.01 0.02 0.02 0.03 0.03 0.04 0.05 0.05 0.04 0.04 0.03 0.04 0.05 0.05 0.05 0.04
0.04 0.04 0.04 0.05 0.05 0.05 0.05 0.04 0.03 0.04 0.04 0.04 0.04 0.06 0.07 0.06 0.06 0.06 0.06 0.05 0.04 0.04 0.04 0.04 0.03 0.02 0.02 0.02 0.02 0.02 0.02 0.02 0.02 0.04 0.05 0.06 0.06 0.04 0.04 0.05 0.06 0.05 0.05 0.04
0.02 0.03 0.04 0.05 0.05 0.06 0.08 0.07 0.04 0.04 0.03 0.03 0.03 0.04 0.06 0.06 0.05 0.05 0.05 0.04 0.04 0.03 0.03 0.03 0.03 0.03 0.03 0.04 0.04 0.04 0.04 0.04 0.02 0.03 0.06 0.07 0.08 0.07 0.05 0.05 0.05 0.04 0.04 0.04
MSLP
1010.82 1011.02 1011.29 1011.63 1012.02 1012.42 1012.77 1013.04 1013.19 1013.21 1013.11 1012.90 1012.63 1012.34 1012.06 1011.81 1011.60 1011.41 1011.23 1011.02 1010.78 1010.49 1010.16 1009.81 1009.46 1009.13 1008.83 1008.58 1008.35 1008.13 1007.89 1007.61 1007.27 1006.87 1006.44 1006.00 1005.59 1005.26 1005.03 1004.91 1004.90 1004.96 1005.06 1005.15
1011.47 1011.68 1011.88 1012.08 1012.27 1012.44 1012.57 1012.64 1012.65 1012.60 1012.49 1012.36 1012.22 1012.08 1011.96 1011.86 1011.76 1011.65 1011.51 1011.32 1011.08 1010.79 1010.46 1010.12 1009.79 1009.50 1009.24 1009.02 1008.82 1008.60 1008.34 1008.03 1007.65 1007.20 1006.71 1006.22 1005.77 1005.39 1005.11 1004.94 1004.88 1004.88 1004.93 1004.97
1012.03 1012.25 1012.40 1012.50 1012.54 1012.54 1012.49 1012.40 1012.29 1012.17 1012.06 1011.98 1011.92 1011.90 1011.90 1011.91 1011.91 1011.86 1011.76 1011.59 1011.35 1011.07 1010.75 1010.43 1010.13 1009.87 1009.64 1009.45 1009.25 1009.04 1008.78 1008.44 1008.04 1007.56 1007.04 1006.52 1006.03 1005.62 1005.29 1005.07 1004.94 1004.88 1004.86 1004.84
1012.47 1012.67 1012.79 1012.82 1012.76 1012.64 1012.47 1012.27 1012.07 1011.90 1011.78 1011.72 1011.73 1011.78 1011.87 1011.96 1012.02 1012.03 1011.97 1011.83 1011.61 1011.35 1011.05 1010.76 1010.48 1010.24 1010.04 1009.85 1009.66 1009.44 1009.17 1008.82 1008.40 1007.91 1007.38 1006.85 1006.34 1005.90 1005.54 1005.26 1005.07 1004.93 1004.84 1004.75
1012.73 1012.91 1012.99 1012.97 1012.85 1012.66 1012.41 1012.15 1011.91 1011.71 1011.59 1011.55 1011.59 1011.69 1011.83 1011.98 1012.09 1012.15 1012.13 1012.03 1011.86 1011.63 1011.36 1011.10 1010.85 1010.62 1010.42 1010.23 1010.03 1009.80 1009.51 1009.14 1008.71 1008.22 1007.70 1007.17 1006.66 1006.21 1005.82 1005.50 1005.25 1005.04 1004.86 1004.69
1012.78 1012.91 1012.94 1012.89 1012.74 1012.52 1012.26 1011.98 1011.73 1011.53 1011.42 1011.39 1011.45 1011.58 1011.76 1011.94 1012.10 1012.21 1012.24 1012.19 1012.07 1011.89 1011.67 1011.44 1011.21 1011.00 1010.79 1010.59 1010.36 1010.10 1009.79 1009.41 1008.98 1008.49 1007.98 1007.47 1006.98 1006.52 1006.12 1005.77 1005.47 1005.19 1004.94 1004.69
1012.61 1012.66 1012.64 1012.56 1012.42 1012.21 1011.97 1011.72 1011.49 1011.32 1011.22 1011.22 1011.30 1011.45 1011.65 1011.86 1012.05 1012.20 1012.29 1012.30 1012.24 1012.12 1011.96 1011.77 1011.57 1011.36 1011.14 1010.91 1010.66 1010.37 1010.03 1009.63 1009.20 1008.73 1008.24 1007.75 1007.28 1006.84 1006.44 1006.06 1005.72 1005.39 1005.07 1004.75
1012.21 1012.17 1012.11 1012.02 1011.90 1011.73 1011.55 1011.37 1011.20 1011.08 1011.03 1011.05 1011.15 1011.31 1011.52 1011.75 1011.97 1012.16 1012.30 1012.37 1012.38 1012.33 1012.22 1012.07 1011.89 1011.69 1011.46 1011.21 1010.92 1010.59 1010.23 1009.82 1009.39 1008.93 1008.47 1008.01 1007.57 1007.15 1006.75 1006.36 1005.99 1005.61 1005.23 1004.86
1011.61 1011.48 1011.39 1011.32 1011.25 1011.16 1011.08 1010.99 1010.92 1010.87 1010.87 1010.93 1011.05 1011.22 1011.44 1011.67 1011.91 1012.13 1012.31 1012.43 1012.50 1012.50 1012.45 1012.34 1012.19 1011.99 1011.75 1011.46 1011.14 1010.79 1010.40 1009.98 1009.55 1009.11 1008.67 1008.24 1007.83 1007.43 1007.03 1006.64 1006.24 1005.84 1005.42 1005.00
1010.84 1010.67 1010.58 1010.55 1010.56 1010.59 1010.63 1010.67 1010.71 1010.76 1010.83 1010.93 1011.07 1011.25 1011.46 1011.69 1011.93 1012.16 1012.36 1012.52 1012.63 1012.68 1012.67 1012.59 1012.45 1012.25 1011.99 1011.69 1011.34 1010.95 1010.54 1010.11 1009.68 1009.25 1008.83 1008.43 1008.03 1007.65 1007.26 1006.87 1006.46 1006.03 1005.59 1005.14
1009.99 1009.82 1009.77 1009.82 1009.94 1010.11 1010.30 1010.48 1010.65 1010.81 1010.95 1011.10 1011.26 1011.44 1011.63 1011.84 1012.07 1012.29 1012.49 1012.67 1012.80 1012.87 1012.88 1012.82 1012.68 1012.48 1012.20 1011.87 1011.50 1011.08 1010.65 1010.21 1009.77 1009.35 1008.94 1008.54 1008.16 1007.79 1007.41 1007.01 1006.60 1006.16 1005.71 1005.26
1009.15 1009.02 1009.05 1009.21 1009.48 1009.80 1010.15 1010.48 1010.78 1011.05 1011.27 1011.46 1011.64 1011.81 1011.98 1012.16 1012.35 1012.55 1012.73 1012.90 1013.02 1013.10 1013.11 1013.04 1012.90 1012.67 1012.38 1012.02 1011.62 1011.18 1010.72 1010.26 1009.81 1009.38 1008.97 1008.58 1008.20 1007.83 1007.45 1007.05 1006.64 1006.21 1005.76 1005.32
1008.42 1008.37 1008.51 1008.81 1009.23 1009.71 1010.20 1010.68 1011.10 1011.46 1011.75 1011.98 1012.16 1012.32 1012.47 1012.61 1012.76 1012.91 1013.07 1013.20 1013.30 1013.35 1013.34 1013.26 1013.09 1012.84 1012.52 1012.13 1011.70 1011.23 1010.75 1010.27 1009.81 1009.36 1008.94 1008.54 1008.16 1007.78 1007.39 1007.00 1006.59 1006.17 1005.74 1005.31
1007.88 1007.95 1008.21 1008.65 1009.20 1009.82 1010.45 1011.03 1011.55 1011.98 1012.32 1012.58 1012.77 1012.91 1013.02 1013.13 1013.24 1013.35 1013.45 1013.55 1013.61 1013.63 1013.58 1013.46 1013.26 1012.98 1012.63 1012.21 1011.75 1011.25 1010.75 1010.25 1009.77 1009.31 1008.87 1008.46 1008.06 1007.67 1007.28 1006.89 1006.49 1006.07 1005.66 1005.26
1007.63 1007.81 1008.19 1008.74 1009.40 1010.12 1010.83 1011.49 1012.07 1012.54 1012.91 1013.18 1013.36 1013.48 1013.57 1013.65 1013.71 1013.78 1013.85 1013.90 1013.92 1013.89 1013.80 1013.64 1013.41 1013.09 1012.71 1012.26 1011.77 1011.25 1010.73 1010.22 1009.72 1009.24 1008.80 1008.37 1007.96 1007.56 1007.17 1006.77 1006.37 1005.97 1005.57 1005.18
1007.69 1007.97 1008.44 1009.07 1009.79 1010.55 1011.30 1011.99 1012.58 1013.06 1013.43 1013.69 1013.87 1013.98 1014.05 1014.09 1014.13 1014.17 1014.20 1014.21 1014.19 1014.12 1013.99 1013.80 1013.52 1013.17 1012.76 1012.29 1011.78 1011.25 1010.72 1010.20 1009.69 1009.22 1008.76 1008.33 1007.91 1007.51 1007.11 1006.71 1006.30 1005.90 1005.50 1005.11
1008.07 1008.42 1008.94 1009.59 1010.32 1011.08 1011.81 1012.47 1013.03 1013.49 1013.83 1014.08 1014.24 1014.34 1014.40 1014.43 1014.46 1014.48 1014.48 1014.46 1014.41 1014.31 1014.14 1013.91 1013.60 1013.23 1012.80 1012.31 1011.80 1011.27 1010.74 1010.22 1009.73 1009.25 1008.80 1008.37 1007.95 1007.55 1007.14 1006.73 1006.32 1005.91 1005.50 1005.09
1008.73 1009.11 1009.64 1010.27 1010.95 1011.65 1012.31 1012.90 1013.40 1013.80 1014.11 1014.33 1014.47 1014.57 1014.63 1014.67 1014.69 1014.70 1014.69 1014.65 1014.58 1014.44 1014.25 1013.99 1013.66 1013.27 1012.83 1012.34 1011.83 1011.32 1010.80 1010.31 1009.83 1009.37 1008.94 1008.52 1008.11 1007.70 1007.29 1006.87 1006.45 1006.01 1005.57 1005.12
1009.59 1009.97 1010.46 1011.03 1011.63 1012.22 1012.78 1013.27 1013.69 1014.03 1014.28 1014.47 1014.61 1014.70 1014.77 1014.82 1014.85 1014.86 1014.85 1014.80 1014.71 1014.55 1014.33 1014.05 1013.71 1013.31 1012.86 1012.39 1011.90 1011.40 1010.92 1010.45 1010.00 1009.57 1009.16 1008.76 1008.36 1007.95 1007.54 1007.11 1006.66 1006.19 1005.71 1005.20
1010.54 1010.90 1011.33 1011.80 1012.30 1012.78 1013.22 1013.60 1013.93 1014.20 1014.41 1014.57 1014.70 1014.80 1014.88 1014.95 1015.00 1015.01 1015.00 1014.94 1014.83 1014.65 1014.42 1014.11 1013.76 1013.35 1012.91 1012.45 1011.99 1011.52 1011.07 1010.64 1010.23 1009.83 1009.44 1009.06 1008.67 1008.27 1007.85 1007.40 1006.93 1006.42 1005.89 1005.32
1011.48 1011.80 1012.16 1012.54 1012.93 1013.29 1013.62 1013.91 1014.16 1014.37 1014.54 1014.69 1014.81 1014.93 1015.02 1015.10 1015.16 1015.19 1015.17 1015.10 1014.97 1014.77 1014.51 1014.19 1013.83 1013.42 1012.99 1012.54 1012.10 1011.67 1011.25 1010.85 1010.47 1010.10 1009.73 1009.37 1008.98 1008.58 1008.16 1007.70 1007.20 1006.66 1006.07 1005.45
1012.31 1012.60 1012.90 1013.20 1013.49 1013.76 1014.00 1014.21 1014.39 1014.56 1014.71 1014.85 1014.98 1015.10 1015.22 1015.31 1015.38 1015.40 1015.37 1015.28 1015.13 1014.91 1014.63 1014.29 1013.92 1013.51 1013.09 1012.66 1012.24 1011.83 1011.44 1011.07 1010.71 1010.36 1010.00 1009.64 1009.26 1008.86 1008.42 1007.94 1007.42 1006.86 1006.24 1005.58
1013.00 1013.25 1013.51 1013.75 1013.97 1014.17 1014.35 1014.50 1014.65 1014.79 1014.92 1015.06 1015.21 1015.34 1015.46 1015.56 1015.62 1015.64 1015.59 1015.48 1015.30 1015.06 1014.76 1014.41 1014.02 1013.62 1013.20 1012.79 1012.39 1012.00 1011.63 1011.27 1010.93 1010.58 1010.23 1009.87 1009.48 1009.06 1008.61 1008.12 1007.59 1007.01 1006.38 1005.71
1013.52 1013.76 1013.99 1014.19 1014.37 1014.52 1014.66 1014.78 1014.91 1015.04 1015.17 1015.32 1015.46 1015.60 1015.73 1015.82 1015.87 1015.87 1015.80 1015.67 1015.47 1015.20 1014.88 1014.52 1014.14 1013.73 1013.33 1012.93 1012.55 1012.18 1011.82 1011.47 1011.12 1010.77 1010.41 1010.03 1009.63 1009.20 1008.73 1008.23 1007.69 1007.11 1006.49 1005.82
1013.91 1014.14 1014.35 1014.53 1014.68 1014.81 1014.92 1015.04 1015.15 1015.27 1015.41 1015.55 1015.70 1015.84 1015.95 1016.03 1016.07 1016.04 1015.95 1015.80 1015.57 1015.29 1014.97 1014.61 1014.23 1013.85 1013.46 1013.08 1012.72 1012.36 1012.01 1011.67 1011.31 1010.95 1010.57 1010.17 1009.74 1009.29 1008.80 1008.29 1007.75 1007.18 1006.58 1005.94
1014.20 1014.43 1014.63 1014.79 1014.92 1015.04 1015.14 1015.24 1015.35 1015.47 1015.59 1015.73 1015.87 1015.99 1016.09 1016.15 1016.16 1016.11 1016.00 1015.83 1015.60 1015.32 1015.00 1014.66 1014.30 1013.94 1013.59 1013.24 1012.90 1012.56 1012.22 1011.88 1011.52 1011.14 1010.73 1010.30 1009.85 1009.36 1008.86 1008.34 1007.80 1007.25 1006.67 1006.07
1014.43 1014.65 1014.83 1014.98 1015.10 1015.20 1015.29 1015.37 1015.47 1015.57 1015.69 1015.81 1015.92 1016.02 1016.09 1016.13 1016.11 1016.04 1015.92 1015.73 1015.51 1015.24 1014.94 1014.63 1014.32 1014.00 1013.69 1013.38 1013.08 1012.77 1012.45 1012.11 1011.74 1011.35 1010.92 1010.47 1009.98 1009.47 1008.95 1008.41 1007.87 1007.32 1006.77 1006.22
Thickness
5763 5774 5779 5777 5778 5780 5772 5764 5753 5757 5760 5767 5775 5782 5788 5790 5791 5791 5791 5791 5790 5788 5787 5786 5784 5782 5781 5777 5776 5774 5771 5769 5767 5766 5764 5763 5761 5759 5757 5755 5754 5752 5751 5750
5752 5768 5771 5767 5771 5773 5770 5768 5762 5760 5758 5773 5777 5780 5781 5782 5782 5781 5782 5784 5784 5782 5781 5780 5779 5777 5775 5773 5771 5769 5766 5764 5763 5761 5758 5757 5755 5754 5752 5750 5749 5748 5746 5745
5727 5747 5752 5741 5755 5760 5758 5762 5759 5750 5756 5767 5766 5769 5770 5774 5775 5776 5776 5776 5776 5774 5774 5775 5775 5774 5770 5768 5767 5764 5760 5758 5757 5754 5752 5751 5750 5748 5746 5745 5744 5743 5742 5740
5715 5726 5715 5732 5757 5761 5755 5754 5759 5759 5761 5762 5762 5765 5766 5768 5769 5768 5769 5769 5769 5769 5769 5770 5771 5768 5766 5763 5760 5757 5754 5752 5750 5748 5746 5744 5743 5741 5741 5741 5740 5738 5737 5736
5701 5703 5712 5732 5749 5751 5743 5737 5750 5751 5755 5756 5759 5758 5754 5761 5763 5764 5764 5764 5764 5764 5763 5762 5761 5759 5756 5754 5752 5750 5747 5745 5744 5743 5740 5738 5736 5736 5736 5735 5734 5733 5731 5730
5696 5696 5695 5717 5743 5754 5742 5721 5740 5743 5743 5746 5747 5732 5736 5751 5754 5756 5757 5757 5755 5755 5755 5753 5752 5751 5746 5743 5743 5742 5741 5740 5739 5738 5736 5734 5732 5731 5730 5729 5728 5728 5726 5725
5691 5690 5699 5723 5739 5742 5712 5711 5732 5735 5736 5736 5732 5732 5739 5745 5747 5749 5750 5750 5749 5747 5745 5745 5745 5742 5737 5734 5733 5735 5735 5734 5732 5731 5730 5729 5727 5726 5724 5722 5721 5720 5719 5719
5681 5679 5687 5719 5724 5714 5711 5723 5726 5728 5730 5729 5729 5733 5736 5739 5740 5740 5740 5741 5740 5737 5736 5736 5736 5733 5728 5726 5728 5728 5728 5726 5724 5724 5724 5723 5720 5718 5716 5715 5713 5711 5711 5710
5680 5682 5697 5709 5711 5715 5716 5715 5719 5721 5724 5725 5724 5725 5728 5729 5731 5731 5732 5731 5731 5730 5727 5726 5726 5724 5721 5722 5722 5721 5720 5718 5717 5717 5716 5715 5712 5709 5707 5706 5705 5704 5704 5703
5676 5682 5691 5698 5703 5707 5710 5711 5713 5717 5718 5719 5717 5718 5720 5721 5721 5721 5722 5722 5722 5720 5718 5716 5717 5717 5716 5715 5715 5712 5710 5709 5708 5707 5706 5705 5704 5702 5700 5699 5698 5698 5697 5697
5667 5675 5682 5687 5691 5695 5700 5704 5706 5708 5710 5711 5709 5710 5712 5712 5712 5712 5712 5714 5713 5711 5709 5709 5709 5709 5709 5707 5706 5703 5702 5701 5700 5699 5698 5696 5695 5694 5694 5694 5694 5693 5693 5693
5658 5668 5668 5673 5683 5690 5690 5692 5694 5696 5698 5701 5702 5701 5703 5703 5703 5704 5704 5705 5703 5703 5702 5702 5702 5701 5701 5700 5697 5695 5694 5693 5693 5691 5690 5689 5687 5686 5687 5688 5689 5688 5688 5688
5663 5669 5669 5672 5678 5683 5682 5683 5686 5688 5688 5688 5691 5694 5695 5694 5694 5694 5694 5695 5694 5694 5693 5693 5692 5692 5691 5691 5689 5688 5687 5686 5685 5684 5682 5681 5680 5678 5677 5678 5680 5680 5680 5679
5663 5664 5662 5665 5668 5673 5674 5675 5677 5678 5678 5679 5681 5683 5684 5684 5685 5685 5684 5685 5686 5685 5684 5683 5682 5683 5684 5683 5682 5680 5679 5678 5677 5675 5675 5674 5673 5672 5671 5670 5669 5670 5671 5671
5657 5659 5656 5659 5662 5664 5665 5665 5665 5666 5668 5669 5671 5673 5674 5673 5673 5675 5676 5677 5677 5676 5675 5674 5673 5674 5675 5675 5673 5672 5671 5670 5670 5668 5667 5667 5666 5665 5664 5664 5663 5662 5662 5663
5651 5653 5652 5651 5652 5655 5656 5656 5655 5656 5658 5659 5661 5663 5664 5664 5665 5666 5667 5669 5667 5667 5667 5665 5665 5666 5667 5667 5665 5664 5663 5663 5663 5661 5660 5659 5658 5657 5656 5656 5655 5655 5655 5656
5641 5640 5641 5642 5644 5646 5648 5649 5649 5650 5651 5651 5652 5654 5656 5656 5656 5657 5658 5660 5660 5660 5660 5659 5659 5660 5660 5660 5658 5656 5656 5655 5655 5654 5653 5652 5651 5650 5649 5649 5648 5649 5650 5651
5639 5639 5639 5639 5638 5639 5640 5642 5643 5643 5643 5645 5646 5647 5647 5646 5646 5648 5650 5652 5652 5652 5653 5654 5653 5653 5653 5652 5650 5649 5648 5648 5647 5646 5645 5644 5644 5644 5643 5643 5643 5643 5643 5643
5635 5636 5636 5636 5636 5635 5635 5635 5636 5637 5638 5638 5638 5638 5638 5639 5639 5641 5643 5643 5642 5642 5644 5646 5646 5645 5644 5643 5643 5642 5641 5641 5640 5639 5639 5638 5637 5637 5636 5636 5636 5636 5637 5636
5630 5631 5631 5631 5632 5631 5630 5630 5630 5630 5631 5631 5631 5630 5630 5631 5632 5633 5634 5634 5635 5636 5638 5638 5638 5637 5637 5636 5635 5635 5634 5634 5633 5632 5632 5630 5630 5629 5629 5630 5630 5630 5629 5628
5622 5623 5624 5624 5624 5625 5625 5625 5624 5624 5624 5625 5624 5623 5623 5624 5626 5625 5625 5625 5627 5629 5630 5631 5631 5630 5630 5629 5628 5628 5627 5626 5626 5625 5625 5624 5623 5622 5622 5622 5622 5622 5622 5621
5615 5616 5617 5618 5618 5619 5620 5620 5619 5619 5618 5618 5618 5617 5617 5617 5617 5618 5618 5619 5621 5622 5623 5624 5624 5623 5623 5622 5621 5621 5620 5619 5618 5618 5617 5616 5616 5615 5615 5615 5614 5615 5614 5613
5610 5611 5612 5612 5612 5612 5613 5613 5613 5613 5612 5612 5611 5611 5611 5610 5610 5610 5610 5614 5615 5616 5616 5616 5617 5616 5615 5614 5613 5613 5613 5612 5612 5611 5610 5609 5609 5608 5608 5608 5608 5608 5607 5606
5605 5606 5607 5608 5608 5607 5605 5606 5607 5607 5607 5607 5606 5607 5606 5605 5605 5607 5608 5609 5609 5609 5608 5608 5608 5609 5608 5607 5606 5606 5605 5605 5605 5604 5603 5603 5602 5601 5601 5601 5601 5602 5601 5601
5602 5603 5603 5602 5601 5601 5601 5601 5601 5601 5601 5601 5602 5602 5603 5602 5601 5602 5604 5604 5603 5603 5602 5602 5601 5601 5601 5600 5600 5599 5598 5598 5597 5597 5597 5597 5596 5596 5596 5595 5595 5594 5594 5594
5598 5598 5598 5598 5598 5597 5597 5596 5595 5595 5595 5595 5595 5597 5598 5598 5598 5598 5597 5598 5598 5596 5595 5595 5595 5594 5594 5593 5593 5592 5591 5591 5592 5591 5591 5590 5590 5589 5589 5589 5588 5587 5587 5586
5595 5595 5594 5593 5593 5593 5593 5592 5591 5591 5592 5591 5590 5592 5592 5592 5592 5592 5592 5592 5591 5590 5589 5589 5589 5589 5588 5587 5586 5586 5585 5585 5585 5585 5584 5584 5583 5582 5582 5582 5581 5580 5579 5579